Weather History for KMWM - May, 2013

Change the Weather History Date:

Wednesday, May 1, 2013

  Actual Average Record
Temperature  
Mean Temperature 42 °F -  
Max Temperature 53 °F 64 °F 93 °F (1959)
Min Temperature 30 °F 39 °F 25 °F (1950)
Degree Days  
Heating Degree Days 24    
Moisture  
Dew Point 31 °F    
Average Humidity 81    
Maximum Humidity 100    
Minimum Humidity 44    
Precipitation  
Precipitation 0.61 in - - ()
Sea Level Pressure  
Sea Level Pressure 30.29 in    
Wind  
Wind Speed 16 mph (NNW)    
Max Wind Speed 24 mph    
Max Gust Speed 30 mph    
Visibility 8 miles    
Events Rain , Snow    
Averages and records for this station are not official NWS values.
T = Trace of Precipitation, MM = Missing Value Source: NWS Daily Summary

Daily Weather History Graph

Daily Weather History Graph

Search for Another Location

Airport or City:

Trip Planner

Search our weather history database for the weather conditions in past years. The results will help you decide how hot, cold, wet, or windy it might be!

Date:

Astronomy

May. 01, 2013 Rise Set
Actual Time 6:11 AM CDT 8:23 PM CDT
Civil Twilight 5:40 AM CDT 8:55 PM CDT
Nautical Twilight 5:01 AM CDT 9:34 PM CDT
Astronomical Twilight 4:18 AM CDT 10:18 PM CDT
Moon 1:34 AM CDT (5/1) 11:51 AM CDT (5/1)
Length of Visible Light 15h 15m
Length of Day
14h 11m
Waning Gibbous, 59% of the Moon is Illuminated
May 1
Waning Gibbous
May 2
Last Quarter
May 9
New
May 17
First Quarter
May 24
Full

Hourly Weather History & Observations

Time (CDT) Temp. Windchill Dew Point Humidity Pressure Visibility Wind Dir Wind Speed Gust Speed Precip Events Conditions
12:12 AM 53.6 °F - 32.0 °F 44% 29.98 in 10.0 mi NNW 16.1 mph 19.6 mph N/A   Overcast
12:52 AM 50.0 °F - 37.4 °F 62% 30.06 in 10.0 mi NW 11.5 mph - N/A Rain Light Rain
1:12 AM 50.0 °F - 37.4 °F 62% 30.06 in 10.0 mi NNW 13.8 mph - N/A   Overcast
1:33 AM 48.2 °F - 35.6 °F 62% 30.07 in 10.0 mi NNW 13.8 mph - N/A   Overcast
1:52 AM 48.2 °F - 35.6 °F 62% 30.07 in 10.0 mi NNW 24.2 mph 27.6 mph N/A Rain Light Rain
2:12 AM 46.4 °F 38.1 °F 37.4 °F 71% 30.09 in 10.0 mi NNW 24.2 mph 29.9 mph N/A Rain Light Rain
2:33 AM 44.6 °F 36.6 °F 37.4 °F 76% 30.09 in 10.0 mi NNW 19.6 mph - N/A Rain Rain
2:52 AM 42.8 °F 34.8 °F 37.4 °F 81% 30.09 in 10.0 mi North 17.3 mph - 0.04 in Rain Heavy Rain
3:12 AM 41.0 °F 33.9 °F 37.4 °F 87% 30.11 in 10.0 mi NNW 12.7 mph - 0.04 in Rain Rain
3:33 AM 41.0 °F 33.5 °F 37.4 °F 87% 30.11 in 10.0 mi NNW 13.8 mph 20.7 mph 0.09 in Rain Rain
3:52 AM 39.2 °F 31.2 °F 37.4 °F 93% 30.12 in 7.0 mi NNW 13.8 mph - 0.14 in Rain Heavy Rain
4:12 AM 39.2 °F 30.2 °F 35.6 °F 87% 30.12 in 4.0 mi North 17.3 mph 23.0 mph 0.06 in Rain Heavy Rain
4:33 AM 37.4 °F 29.3 °F 33.8 °F 87% 30.15 in 5.0 mi North 12.7 mph - 0.15 in   Overcast
4:52 AM 35.6 °F 25.9 °F 32.0 °F 87% 30.16 in 7.0 mi North 16.1 mph - 0.17 in Rain Light Rain
5:12 AM 33.8 °F 24.8 °F 32.0 °F 93% 30.18 in 4.0 mi North 12.7 mph - 0.03 in Snow Snow
5:33 AM 33.8 °F 24.3 °F 33.8 °F 100% 30.17 in 5.0 mi North 13.8 mph - 0.05 in Snow Light Snow
5:52 AM 33.8 °F 27.0 °F 32.0 °F 93% 30.20 in 10.0 mi North 8.1 mph - 0.05 in   Overcast
6:12 AM 35.6 °F 25.2 °F 32.0 °F 87% 30.24 in 2.5 mi NW 18.4 mph 21.9 mph 0.01 in Snow Light Snow
6:33 AM 33.8 °F 23.5 °F 32.0 °F 93% 30.21 in 1.0 mi NNW 16.1 mph - 0.02 in Snow Snow
6:52 AM 33.8 °F 23.9 °F 33.8 °F 100% 30.23 in 1.0 mi NNW 15.0 mph - 0.07 in Snow Snow
7:12 AM 33.8 °F 23.5 °F 32.0 °F 93% 30.24 in 1.2 mi NNW 16.1 mph - 0.01 in Snow Light Snow
7:32 AM 33.8 °F 24.8 °F 32.0 °F 93% 30.26 in 1.0 mi NNW 12.7 mph - 0.02 in Snow Light Snow
7:52 AM 33.8 °F 23.5 °F 32.0 °F 93% 30.25 in 1.2 mi North 16.1 mph - 0.02 in Snow Snow
8:13 AM 32.0 °F 21.2 °F 32.0 °F 100% 30.26 in 1.2 mi North 16.1 mph - N/A Snow Light Snow
8:32 AM 32.0 °F 21.2 °F 32.0 °F 100% 30.28 in 1.0 mi NNW 16.1 mph - 0.01 in Snow Light Snow
8:52 AM 32.0 °F 21.2 °F 30.2 °F 93% 30.27 in 0.8 mi NNW 16.1 mph - 0.01 in Snow Light Snow
9:13 AM 32.0 °F 20.5 °F 30.2 °F 93% 30.26 in 1.0 mi NNW 18.4 mph - 0.02 in Snow Light Snow
9:32 AM 32.0 °F 20.5 °F 30.2 °F 93% 30.25 in 1.2 mi NNW 18.4 mph - 0.02 in Snow Light Snow
9:52 AM 32.0 °F 21.2 °F 30.2 °F 93% 30.28 in 1.8 mi NNW 16.1 mph - 0.03 in Snow Light Snow
10:13 AM 32.0 °F 20.8 °F 30.2 °F 93% 30.30 in 2.0 mi NNW 17.3 mph - N/A Snow Light Snow
10:32 AM 32.0 °F 19.8 °F 30.2 °F 93% 30.30 in 1.5 mi NNW 20.7 mph - 0.02 in Snow Light Snow
10:52 AM 30.2 °F 17.1 °F 28.4 °F 93% 30.29 in 1.2 mi NNW 21.9 mph - 0.05 in Snow Light Snow
11:13 AM 30.2 °F 17.4 °F 28.4 °F 93% 30.32 in 1.0 mi NNW 20.7 mph 28.8 mph 0.03 in Snow Light Snow
11:33 AM 30.2 °F 18.1 °F 28.4 °F 93% 30.31 in 10.0 mi NNW 18.4 mph - 0.03 in Snow Light Snow
11:52 AM 30.2 °F 19.8 °F 28.4 °F 93% 30.31 in 10.0 mi NNW 13.8 mph - 0.03 in   Overcast
12:13 PM 33.8 °F 22.8 °F 28.4 °F 81% 30.32 in 10.0 mi NNW 18.4 mph - N/A   Overcast
12:32 PM 33.8 °F 22.2 °F 26.6 °F 75% 30.31 in 10.0 mi NNW 20.7 mph - N/A Snow Light Snow
12:52 PM 33.8 °F 22.5 °F 26.6 °F 75% 30.31 in 10.0 mi NNW 19.6 mph - N/A   Overcast
1:13 PM 33.8 °F 23.2 °F 26.6 °F 75% 30.33 in 10.0 mi NNW 17.3 mph - N/A   Overcast
1:32 PM 33.8 °F 24.3 °F 28.4 °F 81% 30.34 in 10.0 mi North 13.8 mph - N/A   Overcast
1:52 PM 35.6 °F 26.6 °F 28.4 °F 75% 30.34 in 10.0 mi North 13.8 mph - N/A   Mostly Cloudy
2:12 PM 35.6 °F 26.6 °F 28.4 °F 75% 30.35 in 10.0 mi NNW 13.8 mph - N/A   Mostly Cloudy
2:32 PM 35.6 °F 28.0 °F 28.4 °F 75% 30.35 in 10.0 mi North 10.4 mph - N/A   Mostly Cloudy
2:53 PM 35.6 °F 26.2 °F 28.4 °F 75% 30.35 in 10.0 mi North 15.0 mph - N/A   Overcast
3:13 PM 35.6 °F 26.2 °F 28.4 °F 75% 30.36 in 10.0 mi North 15.0 mph - N/A   Overcast
3:32 PM 35.6 °F 26.2 °F 28.4 °F 75% 30.37 in 10.0 mi NNW 15.0 mph - N/A   Overcast
3:53 PM 35.6 °F 26.6 °F 28.4 °F 75% 30.38 in 10.0 mi North 13.8 mph - N/A   Overcast
4:13 PM 35.6 °F 27.1 °F 28.4 °F 75% 30.39 in 10.0 mi North 12.7 mph - N/A   Overcast
4:32 PM 35.6 °F 27.5 °F 30.2 °F 81% 30.38 in 10.0 mi North 11.5 mph - N/A   Mostly Cloudy
4:53 PM 35.6 °F 27.5 °F 30.2 °F 81% 30.39 in 10.0 mi North 11.5 mph - N/A   Mostly Cloudy
5:13 PM 37.4 °F 28.9 °F 30.2 °F 75% 30.40 in 10.0 mi North 13.8 mph - N/A   Scattered Clouds
5:32 PM 37.4 °F 28.9 °F 30.2 °F 75% 30.41 in 10.0 mi North 13.8 mph - N/A   Scattered Clouds
5:52 PM 37.4 °F 28.9 °F 30.2 °F 75% 30.41 in 10.0 mi NNW 13.8 mph - N/A   Scattered Clouds
6:13 PM 37.4 °F 28.2 °F 30.2 °F 75% 30.40 in 10.0 mi North 16.1 mph - N/A   Scattered Clouds
6:32 PM 37.4 °F 27.5 °F 30.2 °F 75% 30.41 in 10.0 mi NNW 18.4 mph - N/A   Scattered Clouds
6:53 PM 37.4 °F 27.2 °F 28.4 °F 70% 30.42 in 10.0 mi NNW 19.6 mph 24.2 mph N/A   Scattered Clouds
7:12 PM 37.4 °F 27.5 °F 28.4 °F 70% 30.42 in 10.0 mi NNW 18.4 mph - N/A   Scattered Clouds
7:32 PM 37.4 °F 27.8 °F 30.2 °F 75% 30.42 in 10.0 mi NNW 17.3 mph - N/A   Scattered Clouds
7:52 PM 37.4 °F 28.9 °F 30.2 °F 75% 30.44 in 10.0 mi North 13.8 mph - N/A   Mostly Cloudy
8:12 PM 37.4 °F 28.9 °F 30.2 °F 75% 30.45 in 10.0 mi North 13.8 mph - N/A   Overcast
8:32 PM 37.4 °F 28.5 °F 28.4 °F 70% 30.44 in 10.0 mi North 15.0 mph - N/A   Overcast
8:52 PM 37.4 °F 28.9 °F 28.4 °F 70% 30.44 in 10.0 mi North 13.8 mph - N/A   Overcast
9:13 PM 37.4 °F 29.3 °F 30.2 °F 75% 30.45 in 10.0 mi North 12.7 mph - N/A   Overcast
9:32 PM 35.6 °F 27.5 °F 30.2 °F 81% 30.45 in 10.0 mi North 11.5 mph - N/A   Mostly Cloudy
9:52 PM 37.4 °F 27.8 °F 30.2 °F 75% 30.45 in 10.0 mi North 17.3 mph - N/A   Mostly Cloudy
10:33 PM 37.4 °F 26.9 °F 30.2 °F 75% 30.44 in 10.0 mi North 20.7 mph 25.3 mph N/A   Mostly Cloudy
10:52 PM 35.6 °F 24.5 °F 30.2 °F 81% 30.44 in 10.0 mi North 20.7 mph 24.2 mph N/A   Mostly Cloudy
11:13 PM 35.6 °F 24.2 °F 28.4 °F 75% 30.44 in 10.0 mi North 21.9 mph - N/A   Mostly Cloudy
11:33 PM 35.6 °F 25.9 °F 30.2 °F 81% 30.47 in 10.0 mi North 16.1 mph - N/A   Mostly Cloudy
11:52 PM 35.6 °F 25.2 °F 30.2 °F 81% 30.47 in 10.0 mi North 18.4 mph - N/A   Mostly Cloudy